Regional Weather Roundup
Issued by NWS

Home | Current Version | Previous Version | Text Only | Print | Product List | Glossary On
Versions: 1 2 3 4 5 6 7 8 9 10 11 12 13 14 15 16 17 18 19 20 21 22 23 24 25 26 27 28 29 30 31 32 33 34 35 36 37 38 39 40 41 42 43 44 45 46 47 48 49 50
000
ASUS44 KLIX 010613
RWRLA
LOUISIANA WEATHER ROUNDUP
NATIONAL WEATHER SERVICE NEW ORLEANS LA
100 AM CDT MON MAY 01 2017

NOTE: "FAIR" INDICATES FEW OR NO CLOUDS BELOW 12,000 FEET WITH NO
      SIGNIFICANT WEATHER AND/OR OBSTRUCTIONS TO VISIBILITY.
      SKY/WX - SKY CONDITION AND SIGNIFICANT WEATHER.
      TMP - AIR TEMPERATURE.    DP   - DEWPOINT TEMPERATURE.
      RH  - RELATIVE HUMIDITY.  PRES - PRESSURE.
      HX  - HEAT INDEX.         WCI  - WIND CHILL INDEX.

*  THESE STATIONS ARE NOT NWS OR FAA STATIONS AND ARE NOT UNDER
   NWS QUALITY CONTROL.

LAZ040-048-061>063-065-066-069-010700-
SOUTHEAST LOUISIANA

CITY           SKY/WX    TMP DP  RH WIND       PRES   REMARKS
N.O. INTL ARPT CLOUDY    66  55  67 NW15G22   29.93R
6HR MIN TEMP:  66; 6HR MAX TEMP:  75;

N.O. LAKEFRONT MOCLDY    70  58  65 NW25      29.93R
6HR MIN TEMP:  70; 6HR MAX TEMP:  76;

N.O. DOWNTOWN*   N/A     68  55  63 VRB7G20     N/A
6HR MIN TEMP:  68; 6HR MAX TEMP:  76;

RESERVE*       NOT AVBL
SLIDELL        PTCLDY    65  60  84 VRB5      29.93R
6HR MIN TEMP:  65; 6HR MAX TEMP:  74; 6HR PCP:  0.01;

BATON ROUGE    CLEAR     59  54  83 W3        29.95R
6HR MIN TEMP:  59; 6HR MAX TEMP:  72;

BOOTHVILLE     CLOUDY    73  71  93 NW10      29.90S
BELLE CHASSE   CLEAR    N/A N/A N/A VRB6      29.92R
BOGALUSA*      NOT AVBL
GALLIANO*      PTCLDY    66  53  63 NW15G22   29.92S
6HR MIN TEMP:  66; 6HR MAX TEMP:  75;

NEW ROADS*     FAIR      58  54  85 CALM      29.94F
6HR MIN TEMP:  58; 6HR MAX TEMP:  70;

GONZALES*      FAIR      61  55  78 NW7       29.95R
6HR MIN TEMP:  61; 6HR MAX TEMP:  74;

HAMMOND*       PTCLDY    61  54  77 NW3       29.94R
HOUMA*         CLOUDY    65  56  75 NW8       29.95R
PORT FOURCHON* CLOUDY    70  59  68 NW16      29.92R

$$

LAZ041-044-053-054-010700-
SOUTHWEST LOUISIANA

CITY           SKY/WX    TMP DP  RH WIND       PRES   REMARKS
LAKE CHARLES   CLEAR     55  52  89 CALM      29.96S
6HR MIN TEMP:  54; 6HR MAX TEMP:  70;

LAFAYETTE      CLEAR     63  52  67 W5        29.95F
6HR MIN TEMP:  63; 6HR MAX TEMP:  73;

PATTERSON      CLEAR     62  54  74 W5        29.97R
6HR MIN TEMP:  62; 6HR MAX TEMP:  72; 6HR PCP:  0.01;

SALT POINT       N/A     67  51  56 VRB5      29.96R
6HR MIN TEMP:  66; 6HR MAX TEMP:  71;

NEW IBERIA     CLEAR     57  52  83 CALM      29.97S
6HR MIN TEMP:  57; 6HR MAX TEMP:  70;

CHENAULT AIRPK CLEAR     59  50  73 SW5       29.96S
6HR MIN TEMP:  51; 6HR MAX TEMP:  69;


$$

LAZ027-028-010700-
CENTRAL LOUISIANA

CITY           SKY/WX    TMP DP  RH WIND       PRES   REMARKS
FORT POLK      CLEAR     57  48  73 SW7       29.93S
6HR MIN TEMP:  56; 6HR MAX TEMP:  68;

ALEXANDRIA INT CLEAR     59  49  69 SW8       29.91S
6HR MIN TEMP:  59; 6HR MAX TEMP:  68;

ALEXANDRIA     CLEAR     51  51 100 CALM      29.92S
6HR MIN TEMP:  51; 6HR MAX TEMP:  68;


$$

LAZ001-002-010700-
NORTHWEST LOUISIANA

CITY           SKY/WX    TMP DP  RH WIND       PRES   REMARKS
SHREVEPORT     CLEAR     57  34  41 W8        29.89S
6HR MIN TEMP:  55; 6HR MAX TEMP:  66;

BARKSDALE AFB  CLEAR     60  31  33 W15G22    29.89R
6HR MIN TEMP:  60; 6HR MAX TEMP:  67;

DTN SHREVEPORT CLEAR     60  32  34 W13G21    29.89S
6HR MIN TEMP:  60; 6HR MAX TEMP:  67;


$$

LAZ014-016-010700-
NORTHEAST LOUISIANA

CITY           SKY/WX    TMP DP  RH WIND       PRES   REMARKS
MONROE         CLEAR     54  48  80 SW7       29.90R
6HR MIN TEMP:  54; 6HR MAX TEMP:  66;

TALLULAH       CLEAR     56  51  84 S3        29.89F
6HR MIN TEMP:  55; 6HR MAX TEMP:  66;


$$




USA.gov is the U.S. government's official web portal to all federal, state and local government web resources and services.